KS4XQ Weather Reports


time (UTC)temp
C
wind
direction
speed
KPH
gust
KPH
rain 1hr
cm
rain 24hr
cm
rain mn
cm
humidity
%
barometer
mb
20260509000503 17 258 0.0 0.0 0.00 0.00 0.00 75 1014.4
20260509000004 17 258 0.0 0.0 0.00 0.00 0.00 75 1014.2
20260508235503 17 258 0.0 0.0 0.00 0.00 0.00 74 1014.1
20260508235002 17 258 0.0 0.0 0.00 0.00 0.00 73 1014.1
20260508234502 17 258 0.0 0.0 0.00 0.00 0.00 73 1013.9
20260508234002 18 258 0.0 0.0 0.00 0.00 0.00 73 1013.9
20260508233001 18 258 0.0 0.0 0.00 0.00 0.00 73 1014.0
20260508232502 18 258 0.0 0.0 0.00 0.00 0.00 73 1014.1
20260508231504 18 258 0.0 0.0 0.00 0.00 0.00 72 1014.2
20260508230502 18 258 0.0 0.0 0.00 0.00 0.00 71 1014.2
20260508230004 18 258 0.0 0.0 0.00 0.00 0.00 72 1014.0
20260508225503 19 258 0.0 0.0 0.00 0.00 0.00 73 1014.0
20260508225002 19 258 0.0 0.0 0.00 0.00 0.00 72 1014.1
20260508224002 18 258 0.0 0.0 0.00 0.00 0.00 71 1014.0
20260508223504 18 258 0.0 0.0 0.00 0.00 0.00 69 1014.0
20260508223002 18 258 0.0 0.0 0.00 0.00 0.00 70 1014.0
20260508222502 18 258 0.0 1.6 0.00 0.00 0.00 69 1014.1
20260508222004 18 258 0.0 3.2 0.00 0.00 0.00 69 1014.1
20260508221502 19 234 0.0 3.2 0.00 0.00 0.00 69 1013.9
20260508221002 19 292 0.0 1.6 0.00 0.00 0.00 68 1014.1
20260508220006 19 292 0.0 3.2 0.00 0.00 0.00 65 1014.0
20260508215502 19 284 0.0 6.4 0.00 0.00 0.00 65 1013.9
20260508214502 19 300 1.6 4.8 0.00 0.00 0.00 61 1013.9
20260508213502 20 284 1.6 3.2 0.00 0.00 0.00 61 1013.9
20260508213002 20 286 1.6 3.2 0.00 0.00 0.00 60 1014.0
20260508212506 20 266 1.6 6.4 0.00 0.00 0.00 58 1014.0
20260508212003 20 283 1.6 6.4 0.00 0.00 0.00 56 1014.0
20260508211502 20 276 1.6 4.8 0.00 0.00 0.00 57 1014.1
20260508211002 20 241 1.6 6.4 0.00 0.00 0.00 58 1014.0
20260508210502 20 292 1.6 6.4 0.00 0.00 0.00 56 1014.1
20260508210006 20 279 1.6 6.4 0.00 0.00 0.00 57 1013.9
20260508205502 21 251 1.6 12.9 0.00 0.00 0.00 58 1013.9
20260508205002 21 293 1.6 11.3 0.00 0.00 0.00 58 1013.9
20260508204502 21 275 1.6 8.0 0.00 0.00 0.00 57 1014.0
20260508204005 21 284 1.6 4.8 0.00 0.00 0.00 56 1014.1
20260508203002 21 192 1.6 6.4 0.00 0.00 0.00 59 1014.1
20260508202005 21 259 1.6 9.7 0.00 0.00 0.00 55 1014.2
20260508201502 21 284 1.6 4.8 0.00 0.00 0.00 54 1014.2
20260508201002 21 213 1.6 4.8 0.00 0.00 0.00 58 1014.3
20260508200502 21 211 1.6 8.0 0.00 0.00 0.00 58 1014.3
20260508195502 21 288 1.6 6.4 0.00 0.00 0.00 56 1014.5
20260508195005 21 225 1.6 6.4 0.00 0.00 0.00 55 1014.5
20260508194502 21 173 1.6 6.4 0.00 0.00 0.00 54 1014.8
20260508193003 21 121 1.6 11.3 0.00 0.00 0.00 56 1015.1
20260508192502 22 301 1.6 11.3 0.00 0.00 0.00 52 1015.2
20260508192002 22 149 1.6 6.4 0.00 0.00 0.00 54 1015.1
20260508191004 22 195 1.6 11.3 0.00 0.00 0.00 54 1015.4
20260508190004 22 307 3.2 8.0 0.00 0.00 0.00 54 1015.4
20260508185503 21 152 3.2 12.9 0.00 0.00 0.00 56 1015.5
20260508185002 21 290 3.2 12.9 0.00 0.00 0.00 54 1015.5
20260508184502 21 355 1.6 11.3 0.00 0.00 0.00 52 1015.7
20260508184002 21 299 1.6 6.4 0.00 0.00 0.00 56 1015.8
20260508183504 21 283 1.6 6.4 0.00 0.00 0.00 57 1015.8
20260508183002 21 209 3.2 11.3 0.00 0.00 0.00 58 1015.8
20260508181503 21 182 3.2 12.9 0.00 0.00 0.00 57 1016.2
20260508181002 21 335 4.8 12.9 0.00 0.00 0.00 56 1016.0
20260508180505 21 319 4.8 14.5 0.00 0.00 0.00 58 1016.2
20260508180004 21 297 3.2 14.5 0.00 0.00 0.00 55 1016.3
20260508175502 21 263 1.6 8.0 0.00 0.00 0.00 55 1016.3
20260508174501 21 213 3.2 6.4 0.00 0.00 0.00 55 1016.4
20260508174001 21 182 3.2 9.7 0.00 0.00 0.00 57 1016.4
20260508173503 21 192 3.2 9.7 0.00 0.00 0.00 55 1016.5
20260508173001 21 205 3.2 8.0 0.00 0.00 0.00 55 1016.4
20260508171503 20 70 3.2 8.0 0.00 0.00 0.00 60 1016.6
20260508171003 20 163 3.2 8.0 0.00 0.00 0.00 57 1016.7
20260508165502 21 232 3.2 8.0 0.00 0.00 0.00 52 1017.0
20260508165000 22 190 3.2 6.4 0.00 0.00 0.00 57 1017.0
20260508163502 21 178 1.6 9.7 0.00 0.00 0.00 57 1017.2
20260508163001 21 130 1.6 6.4 0.00 0.00 0.00 50 1017.3
20260508162501 21 165 1.6 4.8 0.00 0.00 0.00 55 1017.5
20260508162001 21 321 3.2 9.7 0.00 0.00 0.00 55 1017.6
20260508161503 21 192 3.2 11.3 0.00 0.00 0.00 52 1017.6
20260508161000 21 197 3.2 9.7 0.00 0.00 0.00 55 1017.6
20260508160501 21 207 1.6 9.7 0.00 0.00 0.00 57 1017.6
20260508155501 21 213 3.2 6.4 0.00 0.00 0.00 50 1017.6
20260508155004 21 224 3.2 6.4 0.00 0.00 0.00 60 1017.7
20260508154501 20 233 3.2 8.0 0.00 0.00 0.00 55 1017.8
20260508154001 20 99 3.2 8.0 0.00 0.00 0.00 55 1017.8
20260508153502 20 217 3.2 8.0 0.00 0.00 0.00 58 1017.9
20260508153003 20 198 3.2 6.4 0.00 0.00 0.00 60 1018.0
20260508152501 20 190 3.2 6.4 0.00 0.00 0.00 61 1018.0
20260508152002 19 219 3.2 8.0 0.00 0.00 0.00 58 1017.9
20260508151501 19 296 3.2 8.0 0.00 0.00 0.00 57 1017.9
20260508150503 19 212 1.6 6.4 0.00 0.00 0.00 60 1018.1
20260508150003 19 287 3.2 9.7 0.00 0.00 0.00 57 1018.0
20260508145500 18 162 3.2 9.7 0.00 0.00 0.00 59 1017.9
20260508144501 18 190 1.6 9.7 0.00 0.00 0.00 61 1017.8
20260508144001 18 169 3.2 6.4 0.00 0.00 0.00 67 1017.8
20260508143500 17 150 4.8 9.7 0.00 0.00 0.00 70 1017.8
20260508143002 17 215 3.2 8.0 0.00 0.00 0.00 69 1017.8
20260508142501 16 204 1.6 8.0 0.00 0.00 0.00 70 1017.8
20260508142001 16 173 1.6 6.4 0.00 0.00 0.00 73 1017.9
20260508141500 15 138 1.6 6.4 0.00 0.00 0.00 72 1017.9
20260508141001 15 229 1.6 6.4 0.00 0.00 0.00 73 1018.0
20260508140502 15 172 1.6 6.4 0.00 0.00 0.00 76 1018.1
20260508140003 15 215 1.6 3.2 0.00 0.00 0.00 78 1018.1
20260508135500 14 108 1.6 6.4 0.00 0.20 0.00 79 1018.2
20260508134501 13 76 1.6 4.8 0.00 0.20 0.00 79 1018.2
20260508134001 13 175 1.6 4.8 0.00 0.20 0.00 80 1018.2
20260508133502 13 216 1.6 4.8 0.00 0.20 0.00 82 1018.1
20260508133003 13 198 1.6 4.8 0.00 0.20 0.00 82 1018.3
20260508132501 12 146 1.6 4.8 0.00 0.20 0.00 84 1018.2
20260508132001 12 111 0.0 4.8 0.00 0.20 0.00 85 1018.2
20260508131501 12 113 0.0 4.8 0.00 0.20 0.00 84 1018.1
20260508131002 11 355 0.0 3.2 0.00 0.20 0.00 91 1018.1
20260508130501 11 95 1.6 3.2 0.00 0.20 0.00 90 1018.1
20260508130003 11 104 0.0 3.2 0.00 0.20 0.00 92 1018.0
20260508125503 11 83 1.6 6.4 0.00 0.33 0.00 93 1017.9
20260508124501 11 80 0.0 3.2 0.00 0.33 0.00 96 1017.7
20260508124004 11 293 0.0 1.6 0.00 0.33 0.00 96 1017.7
20260508123501 11 35 0.0 4.8 0.00 0.33 0.00 96 1017.7
20260508123001 10 345 0.0 4.8 0.00 0.33 0.00 97 1017.6
20260508122001 10 63 0.0 3.2 0.00 0.33 0.00 96 1017.6
20260508121501 10 45 0.0 1.6 0.00 0.33 0.00 97 1017.4
20260508121001 10 74 0.0 3.2 0.00 0.33 0.00 96 1017.4
20260508120502 10 84 0.0 3.2 0.00 0.33 0.00 96 1017.3
20260508120003 10 76 0.0 3.2 0.00 0.33 0.00 97 1017.3
20260508115501 9 70 0.0 3.2 0.00 0.86 0.00 96 1017.2
20260508115001 9 70 0.0 3.2 0.00 0.86 0.00 97 1017.1
20260508114501 9 76 0.0 1.6 0.00 0.86 0.00 96 1017.0
20260508113001 8 105 0.0 4.8 0.00 0.86 0.00 96 1016.9
20260508112503 8 105 0.0 4.8 0.00 0.86 0.00 96 1016.7
20260508112001 8 87 0.0 1.6 0.00 0.86 0.00 95 1016.5
20260508111001 8 87 0.0 0.0 0.00 0.86 0.00 94 1016.4
20260508105501 8 90 0.0 1.6 0.00 1.24 0.00 94 1016.3
20260508105000 8 63 0.0 0.0 0.00 1.24 0.00 95 1016.1
20260508103501 8 63 0.0 0.0 0.00 1.24 0.00 95 1015.8
20260508102501 8 63 0.0 0.0 0.00 1.24 0.00 95 1015.7
20260508102003 8 63 0.0 0.0 0.00 1.24 0.00 95 1015.7
20260508101501 8 63 0.0 0.0 0.00 1.24 0.00 94 1015.6
20260508101002 8 63 0.0 0.0 0.00 1.24 0.00 93 1015.6
20260508100500 8 63 0.0 0.0 0.00 1.24 0.00 94 1015.5
20260508100003 8 63 0.0 0.0 0.00 1.24 0.00 93 1015.5
20260508095502 8 63 0.0 0.0 0.00 1.45 0.00 93 1015.2
20260508095001 8 63 0.0 0.0 0.00 1.45 0.00 93 1015.3
20260508094501 8 63 0.0 0.0 0.00 1.45 0.00 93 1015.2
20260508094001 8 63 0.0 0.0 0.00 1.45 0.00 93 1015.1
20260508093503 8 63 0.0 0.0 0.00 1.45 0.00 93 1015.1
20260508093001 8 63 0.0 0.0 0.00 1.45 0.00 94 1014.9
20260508092501 8 63 0.0 0.0 0.00 1.45 0.00 94 1015.0
20260508092002 8 71 0.0 0.0 0.00 1.45 0.00 93 1015.1
20260508091501 8 71 0.0 0.0 0.00 1.45 0.00 92 1015.0
20260508091002 8 71 0.0 0.0 0.00 1.45 0.00 92 1015.0
20260508090501 8 71 0.0 0.0 0.00 1.45 0.00 91 1014.9
20260508090003 8 71 0.0 0.0 0.00 1.45 0.00 91 1014.9
20260508085502 8 71 0.0 0.0 0.00 1.96 0.00 91 1014.8
20260508085000 8 71 0.0 0.0 0.00 1.96 0.00 91 1014.8
20260508084500 8 71 0.0 0.0 0.00 1.96 0.00 91 1014.9
20260508084000 8 71 0.0 0.0 0.00 1.96 0.00 91 1014.8
20260508083503 8 71 0.0 0.0 0.00 1.96 0.00 91 1014.7
20260508083002 8 71 0.0 0.0 0.00 1.96 0.00 91 1014.8
20260508082501 8 71 0.0 0.0 0.00 1.96 0.00 91 1014.7
20260508080501 8 71 0.0 0.0 0.00 1.96 0.00 91 1014.6
20260508080004 9 71 0.0 0.0 0.00 1.96 0.00 90 1014.6
20260508074501 9 71 0.0 0.0 0.00 2.64 0.00 90 1014.8
20260508074004 9 71 0.0 0.0 0.00 2.64 0.00 91 1014.7
20260508073500 9 71 0.0 0.0 0.00 2.64 0.00 91 1014.8
20260508073001 9 71 0.0 0.0 0.00 2.64 0.00 90 1014.7
20260508072502 9 71 0.0 0.0 0.00 2.64 0.00 90 1014.8
20260508072001 9 71 0.0 0.0 0.00 2.64 0.00 90 1014.8
20260508071501 9 71 0.0 0.0 0.00 2.64 0.00 89 1014.7
20260508071000 9 71 0.0 0.0 0.00 2.64 0.00 89 1014.8
20260508070502 9 71 0.0 0.0 0.00 2.64 0.00 89 1014.7
20260508070003 10 71 0.0 0.0 0.00 2.64 0.00 89 1014.6
20260508065501 10 71 0.0 0.0 0.00 3.33 0.00 89 1014.5
20260508065003 10 71 0.0 0.0 0.00 3.33 0.00 89 1014.4
20260508063501 10 71 0.0 0.0 0.00 3.33 0.00 89 1014.5
20260508063002 10 71 0.0 0.0 0.00 3.33 0.00 89 1014.4
20260508062501 10 71 0.0 0.0 0.00 3.33 0.00 89 1014.3
20260508062001 10 71 0.0 0.0 0.00 3.33 0.00 89 1014.5
20260508061002 10 71 0.0 0.0 0.00 3.33 0.00 89 1014.4
20260508060501 10 71 0.0 0.0 0.00 3.33 0.00 89 1014.4
20260508060002 10 71 0.0 0.0 0.00 3.33 0.00 89 1014.4
20260508055500 10 71 0.0 0.0 0.00 3.78 0.00 88 1014.5
20260508055001 11 71 0.0 0.0 0.00 3.78 0.00 88 1014.6
20260508054500 11 71 0.0 0.0 0.00 3.78 0.00 88 1014.5
20260508053959 11 71 0.0 0.0 0.00 3.78 0.00 88 1014.5
20260508053459 11 71 0.0 0.0 0.00 3.78 0.00 88 1014.5
20260508053001 11 71 0.0 0.0 0.00 3.78 0.00 88 1014.5
20260508052000 11 71 0.0 0.0 0.00 3.78 0.00 87 1014.7
20260508051002 11 71 0.0 0.0 0.00 3.78 0.00 86 1014.5
20260508050500 11 71 0.0 0.0 0.00 3.78 0.00 86 1014.5
20260508050005 11 71 0.0 0.0 0.00 3.78 0.00 86 1014.4
20260508045501 11 71 0.0 0.0 0.00 4.32 0.00 86 1014.5
20260508044503 12 71 0.0 0.0 0.00 4.32 0.00 86 1014.3
20260508044001 12 71 0.0 0.0 0.00 4.32 0.00 86 1014.2
20260508043501 12 71 0.0 0.0 0.00 4.32 0.00 85 1014.1
20260508043001 12 71 0.0 0.0 0.00 4.32 0.00 85 1014.2
20260508042503 12 71 0.0 0.0 0.00 4.32 0.00 85 1014.2
20260508042001 12 71 0.0 0.0 0.00 4.32 0.00 85 1014.1
20260508041003 12 71 0.0 0.0 0.00 4.32 0.00 85 1013.8
20260508040501 12 71 0.0 0.0 0.00 4.32 0.00 85 1013.7
20260508040011 12 71 0.0 0.0 0.00 4.32 0.00 85 1013.7
20260508034503 13 71 0.0 0.0 0.00 4.32 4.32 84 1013.9
20260508034005 13 71 0.0 0.0 0.00 4.32 4.32 84 1014.1
20260508033503 13 71 0.0 0.0 0.00 4.32 4.32 84 1014.0
20260508033003 13 71 0.0 0.0 0.00 4.32 4.32 83 1013.9
20260508031502 13 71 0.0 0.0 0.00 4.32 4.32 83 1013.8
20260508031003 13 71 0.0 0.0 0.00 4.32 4.32 83 1013.7
20260508030503 14 71 0.0 0.0 0.00 4.32 4.32 82 1013.7
20260508030006 14 71 0.0 0.0 0.00 4.32 4.32 81 1013.6
20260508025502 14 71 0.0 0.0 0.00 4.34 4.32 80 1013.6
20260508024502 15 71 0.0 0.0 0.00 4.34 4.32 80 1013.5
20260508023502 15 71 0.0 0.0 0.00 4.34 4.32 80 1013.5
20260508023002 15 71 0.0 0.0 0.00 4.34 4.32 79 1013.3
20260508022502 15 71 0.0 0.0 0.00 4.34 4.32 79 1013.2
20260508021502 15 71 0.0 0.0 0.00 4.34 4.32 78 1013.3
20260508021002 16 71 0.0 0.0 0.00 4.34 4.32 77 1013.1
20260508020502 16 71 0.0 0.0 0.00 4.34 4.32 77 1013.0
20260508020007 16 71 0.0 0.0 0.00 4.34 4.32 75 1013.0
20260508015003 16 71 0.0 0.0 0.00 4.83 4.32 75 1012.7
20260508014502 16 71 0.0 1.6 0.00 4.83 4.32 74 1012.6
20260508014006 16 71 0.0 1.6 0.00 4.83 4.32 74 1012.5
20260508013503 17 57 0.0 3.2 0.00 4.83 4.32 74 1012.3
20260508013002 17 103 0.0 3.2 0.00 4.83 4.32 74 1012.3
20260508012505 17 72 1.6 4.8 0.00 4.83 4.32 74 1012.1
20260508012003 17 71 0.0 4.8 0.00 4.83 4.32 71 1011.9
20260508011503 17 109 0.0 4.8 0.00 4.83 4.32 70 1011.9
20260508011003 18 67 0.0 3.2 0.00 4.83 4.32 71 1011.8
20260508010505 18 67 1.6 3.2 0.00 4.83 4.32 71 1011.7
20260508010004 18 5 1.6 11.3 0.00 4.83 4.32 69 1011.4
20260508005501 18 5 3.2 11.3 0.00 5.89 4.32 69 1011.2
20260508005001 18 333 3.2 8.0 0.00 5.89 4.32 68 1011.3
20260508004503 18 349 3.2 11.3 0.00 5.89 4.32 69 1011.1
20260508004002 18 284 4.8 12.9 0.00 5.89 4.32 68 1011.0
20260508003501 18 309 6.4 16.1 0.00 5.89 4.32 68 1010.9
20260508003001 19 263 4.8 16.1 0.00 5.89 4.32 67 1010.9
20260508002503 19 286 6.4 14.5 0.00 5.89 4.32 67 1010.6
20260508002005 19 252 6.4 16.1 0.00 5.89 4.32 66 1010.6
20260508001501 20 263 3.2 16.1 0.00 5.89 4.32 64 1010.5
20260508001004 20 290 3.2 16.1 0.00 5.89 4.32 64 1010.4